Date,TemperatureHighF,TemperatureAvgF,TemperatureLowF,DewpointHighF,DewpointAvgF,DewpointLowF,HumidityHigh,HumidityAvg,HumidityLow,PressureMaxIn,PressureMinIn,WindSpeedMaxMPH,WindSpeedAvgMPH,GustSpeedMaxMPH,PrecipitationSumIn
2013-1-1,63,43,32,32,27,23,73,55,30,30.24,30.11,6,0,6,0.00
2013-1-2,68,48,37,27,23,19,53,39,19,30.15,29.98,8,1,8,0.00
2013-1-3,69,50,40,24,20,17,45,31,17,30.21,30.03,12,2,12,0.00
2013-1-4,66,47,38,26,21,16,47,36,22,30.30,30.19,10,1,10,0.00
2013-1-5,68,46,35,28,23,19,56,42,21,30.33,30.19,7,0,7,0.00
2013-1-6,69,50,38,30,25,21,55,40,20,30.19,29.93,12,1,12,0.00
2013-1-7,65,49,38,30,26,22,58,43,26,29.95,29.85,6,1,6,0.00
2013-1-8,70,50,37,30,26,22,61,42,21,30.11,29.89,5,0,5,0.00
2013-1-9,76,53,40,34,29,23,57,40,21,30.19,29.99,6,0,6,0.00
2013-1-10,58,50,43,38,28,25,60,43,29,29.99,29.78,10,1,10,0.00
2013-1-11,56,45,36,25,19,8,49,37,18,30.09,29.88,13,2,13,0.00
2013-1-12,57,40,29,19,14,10,54,37,20,30.10,29.96,9,1,9,0.00
2013-1-13,55,38,28,17,12,9,52,35,19,30.15,30.04,10,1,10,0.00
2013-1-14,49,36,28,13,10,7,43,35,22,30.27,30.06,10,1,10,0.00
2013-1-15,55,38,25,12,8,3,44,31,15,30.42,30.26,7,1,7,0.00
2013-1-16,67,44,29,25,16,7,47,34,18,30.40,30.25,8,0,8,0.00
2013-1-17,76,53,37,28,24,18,48,34,16,30.29,30.16,12,1,12,0.00
2013-1-18,78,56,44,31,26,20,44,33,17,30.26,30.12,7,0,7,0.00
2013-1-19,78,56,42,32,27,22,51,35,17,30.27,30.14,4,0,4,0.00
2013-1-20,78,56,43,33,26,20,48,33,17,30.19,30.01,5,0,5,0.00
2013-1-21,81,59,45,32,26,20,39,29,15,30.12,30.01,7,0,7,0.00
2013-1-22,82,60,46,33,27,21,42,30,15,30.17,30.07,4,0,4,0.00
2013-1-23,79,61,47,35,30,24,45,32,16,30.20,30.08,6,0,6,0.00
2013-1-24,64,58,54,47,39,29,65,50,34,30.24,30.11,6,0,6,0.02
2013-1-25,74,62,52,52,46,41,68,56,35,30.17,29.96,7,0,7,0.00
2013-1-26,62,57,54,54,51,48,90,81,65,29.99,29.89,11,2,11,1.34
2013-1-27,63,57,52,58,53,47,89,85,80,30.00,29.89,8,1,8,0.37
2013-1-28,58,50,43,50,39,32,84,65,51,30.01,29.88,12,3,12,0.00
2013-1-29,58,46,37,34,31,28,71,56,40,30.19,30.00,11,2,11,0.00
2013-1-30,64,48,37,36,31,26,70,55,35,30.34,30.19,7,1,7,0.00
2013-1-31,70,52,38,44,36,27,68,55,37,30.25,30.08,6,0,6,0.00
2013-2-1,72,55,43,42,35,27,69,51,19,30.21,30.12,6,0,6,0.00
2013-2-2,79,58,44,42,37,33,67,49,23,30.25,30.10,4,0,4,0.00
2013-2-3,66,59,53,48,43,39,71,56,39,30.11,29.96,6,0,6,0.00
2013-2-4,76,62,51,48,45,41,79,56,32,30.04,29.92,5,0,5,0.00
2013-2-5,77,60,48,46,41,38,74,54,27,30.02,29.90,8,0,8,0.00
2013-2-6,73,59,48,44,42,39,72,55,34,30.01,29.89,9,1,9,0.00
2013-2-7,73,58,47,45,41,38,76,55,30,30.10,29.91,11,1,11,0.00
2013-2-8,66,56,48,41,34,26,69,47,27,29.91,29.76,12,2,12,0.00
2013-2-9,55,48,40,36,31,27,74,54,36,30.01,29.78,14,2,14,0.02
2013-2-10,58,47,38,33,30,28,73,53,33,30.03,29.93,10,1,10,0.00
2013-2-11,57,45,38,37,32,29,76,62,44,30.15,29.94,12,2,12,0.02
2013-2-12,61,45,33,35,29,25,83,58,30,30.28,30.14,8,1,8,0.00
2013-2-13,64,48,35,31,27,25,68,47,24,30.20,30.08,6,1,6,0.00
2013-2-14,70,52,38,34,30,26,64,46,23,30.14,30.02,7,1,7,0.00
2013-2-15,78,59,44,32,28,24,54,33,15,30.25,30.12,12,1,12,0.00
2013-2-16,81,62,47,30,25,19,41,27,11,30.25,29.96,11,2,11,0.00
2013-2-17,74,59,45,31,26,22,53,32,15,29.96,29.82,13,2,13,0.00
2013-2-18,75,58,45,30,27,23,46,32,16,30.04,29.88,10,1,10,0.00
2013-2-19,71,58,44,33,26,22,46,32,16,29.88,29.66,20,3,20,0.00
2013-2-20,53,44,36,40,35,30,82,69,44,29.94,29.64,13,2,13,0.51
2013-2-21,59,46,34,37,33,29,82,64,42,30.03,29.93,12,2,12,0.02
2013-2-22,64,49,38,38,31,26,77,54,26,30.12,29.99,7,1,7,0.00
2013-2-23,65,51,38,34,30,27,68,48,25,30.12,29.82,7,1,7,0.00
2013-2-24,66,53,46,32,22,14,58,33,15,30.08,29.81,16,4,16,0.00
2013-2-25,66,50,37,26,22,17,49,34,19,30.21,30.01,9,1,9,0.00
2013-2-26,69,52,37,30,25,18,57,38,19,30.07,29.93,8,1,8,0.00
2013-2-27,71,55,42,22,18,14,36,25,13,30.23,30.07,10,1,10,0.00
2013-2-28,74,56,40,26,20,16,40,27,13,30.29,30.20,9,1,9,0.00
2013-3-1,79,59,43,34,27,20,44,32,16,30.33,30.17,8,1,8,0.00
2013-3-2,83,64,49,38,34,29,51,34,16,30.27,30.06,6,0,6,0.00
2013-3-3,73,62,50,40,35,32,53,39,22,30.07,29.87,7,1,7,0.00
2013-3-4,75,63,50,40,36,32,57,39,24,30.05,29.84,11,2,11,0.00
2013-3-5,77,63,50,42,37,33,57,41,21,30.10,29.95,10,1,10,0.00
2013-3-6,80,65,52,42,37,34,57,38,19,30.03,29.87,11,1,11,0.00
2013-3-7,77,64,50,40,36,33,55,37,20,29.95,29.84,9,1,9,0.00
2013-3-8,64,53,43,49,41,34,82,65,37,29.96,29.73,19,4,19,0.71
2013-3-9,57,47,39,40,38,34,83,70,50,30.09,29.94,7,1,7,0.00
2013-3-10,72,55,40,44,38,34,80,58,29,30.18,30.05,10,1,10,0.00
2013-3-11,76,59,44,42,37,32,71,47,21,30.17,30.00,7,1,7,0.00
2013-3-12,81,64,48,44,40,36,67,45,22,30.09,29.98,6,1,6,0.00
2013-3-13,89,70,53,48,41,35,62,40,16,30.14,30.01,10,1,10,0.00
2013-3-14,94,74,57,46,40,32,48,33,13,30.12,29.97,8,1,8,0.00
2013-3-15,89,73,57,47,41,34,56,35,15,30.01,29.85,8,1,8,0.00
2013-3-16,87,71,57,44,40,34,55,34,17,29.87,29.72,9,1,9,0.00
2013-3-17,83,70,56,41,36,30,49,31,15,29.84,29.73,11,2,11,0.00
2013-3-18,83,69,54,42,37,31,46,32,18,29.94,29.81,9,1,9,0.00
2013-3-19,82,71,60,43,39,35,50,34,19,29.97,29.84,9,1,9,0.00
2013-3-20,80,69,56,44,40,36,54,37,21,29.99,29.76,6,1,6,0.00
2013-3-21,83,72,61,44,41,36,51,34,20,29.77,29.64,11,1,11,0.00
2013-3-22,82,70,57,44,38,27,53,33,21,29.74,29.63,10,2,10,0.00
2013-3-23,80,66,50,31,23,14,39,22,9,29.93,29.73,11,2,11,0.00
2013-3-24,79,65,48,30,24,19,39,23,12,29.96,29.81,9,1,9,0.00
2013-3-25,84,68,52,35,29,23,43,26,12,29.97,29.84,7,1,7,0.00
2013-3-26,86,70,55,40,30,19,43,26,9,29.91,29.75,10,1,10,0.00
2013-3-27,82,70,56,37,30,24,38,25,12,29.90,29.81,8,1,8,0.00
2013-3-28,84,70,55,38,32,26,43,27,13,30.00,29.90,9,1,9,0.00
2013-3-29,87,72,56,41,33,23,49,27,10,30.04,29.94,8,1,8,0.00
2013-3-30,85,72,61,39,34,27,39,27,13,30.01,29.88,8,1,8,0.00
2013-3-31,87,73,56,42,35,29,45,27,13,29.98,29.83,10,2,10,0.00
2013-4-1,83,72,60,44,35,24,48,28,12,29.96,29.84,12,2,12,0.00
2013-4-2,82,70,54,35,31,26,44,25,13,29.92,29.78,11,2,11,0.00
2013-4-3,86,73,59,41,35,30,40,26,15,29.99,29.87,10,1,10,0.00
2013-4-4,90,74,58,44,36,26,44,28,11,30.01,29.86,9,1,9,0.00
2013-4-5,87,75,61,42,36,31,42,27,14,29.91,29.80,12,2,12,0.00
2013-4-6,86,75,61,41,36,29,43,26,13,29.92,29.76,11,1,11,0.00
2013-4-7,87,74,59,43,38,32,46,29,14,29.84,29.66,10,1,10,0.00
2013-4-8,79,69,55,43,39,32,55,35,20,29.67,29.36,23,4,23,0.07
2013-4-9,71,61,50,40,33,25,67,38,18,29.85,29.52,14,2,14,0.02
2013-4-10,77,64,49,36,30,23,44,29,17,29.96,29.83,9,1,9,0.00
2013-4-11,80,66,51,36,32,25,47,30,14,29.92,29.71,10,1,10,0.00
2013-4-12,85,71,55,39,32,26,42,27,12,29.77,29.67,8,1,8,0.00
2013-4-13,87,73,56,38,33,27,43,25,12,29.80,29.63,14,2,14,0.00
2013-4-14,86,75,61,39,32,25,37,22,13,29.73,29.58,11,2,11,0.00
2013-4-15,83,72,59,42,35,28,40,27,16,29.73,29.62,19,2,19,0.00
2013-4-16,79,69,58,45,36,22,45,30,18,29.77,29.66,14,2,14,0.00
2013-4-17,76,64,55,33,21,10,34,21,10,29.99,29.73,17,3,17,0.00
2013-4-18,77,64,50,28,18,10,28,18,10,30.10,29.98,12,1,12,0.00
2013-4-19,83,68,50,26,16,8,26,15,6,30.13,29.89,8,1,8,0.00
2013-4-20,87,73,52,32,21,12,32,16,7,29.93,29.78,15,2,15,0.00
2013-4-21,91,77,58,32,24,17,31,16,7,29.98,29.84,8,1,8,0.00
2013-4-22,91,79,61,36,27,18,36,16,7,29.91,29.71,12,2,12,0.00
2013-4-23,90,79,65,36,28,22,27,16,10,29.84,29.72,8,2,8,0.00
2013-4-24,89,76,60,35,29,21,32,19,10,29.87,29.77,9,2,9,0.00
2013-4-25,82,73,62,39,34,30,35,24,16,29.98,29.80,12,2,14,0.00
2013-4-26,89,75,58,43,34,28,46,25,12,30.07,29.94,8,1,8,0.00
2013-4-27,95,80,61,41,30,20,36,19,7,30.01,29.83,28,1,28,0.00
2013-4-28,99,83,64,39,27,12,29,15,4,29.86,29.71,9,1,9,0.00
2013-4-29,99,85,65,41,28,17,29,15,5,29.76,29.60,11,2,11,0.00
2013-4-30,97,85,71,37,26,15,27,13,5,29.74,29.63,15,3,15,0.00
2013-5-1,92,81,65,37,28,18,29,15,8,29.92,29.74,9,2,9,0.00
2013-5-2,95,81,67,24,17,5,17,10,3,30.14,29.92,15,3,15,0.00
2013-5-3,91,78,67,31,24,16,22,14,7,30.03,29.76,21,4,21,0.00
2013-5-4,93,79,62,39,26,12,35,17,5,29.76,29.61,11,2,11,0.00
2013-5-5,90,78,66,36,28,19,28,17,8,29.85,29.72,20,3,20,0.00
2013-5-6,85,76,66,45,39,27,38,28,19,29.93,29.81,14,2,14,0.00
2013-5-7,83,73,64,45,39,35,42,30,20,29.95,29.81,14,2,14,0.00
2013-5-8,81,72,62,43,37,33,39,28,19,30.00,29.88,9,1,9,0.00
2013-5-9,86,75,61,44,37,31,39,26,15,29.96,29.84,10,1,10,0.00
2013-5-10,93,79,62,45,37,29,41,24,11,29.98,29.85,9,1,9,0.00
2013-5-11,96,83,68,45,37,24,36,22,8,30.04,29.90,14,2,14,0.00
2013-5-12,99,84,68,44,38,31,40,21,10,30.08,29.85,10,2,10,0.00
2013-5-13,101,87,70,45,38,31,32,20,9,30.00,29.80,12,1,12,0.00
2013-5-14,100,89,76,42,36,30,25,16,9,29.90,29.73,13,3,13,0.00
2013-5-15,98,87,74,45,37,31,26,18,10,29.89,29.74,12,3,12,0.00
2013-5-16,98,86,70,43,33,20,37,17,6,29.85,29.66,12,3,12,0.00
2013-5-17,91,82,68,40,32,24,29,17,11,29.81,29.71,11,1,11,0.00
2013-5-18,90,81,71,48,40,31,37,24,12,29.85,29.74,10,2,10,0.00
2013-5-19,94,82,68,47,38,30,37,22,11,29.84,29.67,9,2,9,0.00
2013-5-20,95,83,67,41,30,17,38,17,6,29.82,29.71,18,2,18,0.00
2013-5-21,96,83,66,40,29,18,30,16,6,29.83,29.65,17,2,17,0.00
2013-5-22,98,85,68,39,30,19,30,15,6,29.73,29.55,12,2,12,0.00
2013-5-23,96,84,68,40,32,26,28,17,9,29.75,29.64,11,2,11,0.00
2013-5-24,96,83,66,40,31,24,40,17,8,29.85,29.73,10,2,10,0.02
2013-5-25,95,83,67,39,29,20,31,15,7,29.87,29.74,10,2,10,0.00
2013-5-26,92,82,68,37,27,18,27,14,7,29.88,29.75,9,1,9,0.00
2013-5-27,92,81,69,38,32,26,27,18,10,29.81,29.65,7,1,7,0.00
2013-5-28,92,81,64,43,36,27,43,22,10,29.66,29.52,13,2,13,0.00
2013-5-29,94,84,71,50,41,36,31,23,14,29.67,29.55,11,2,11,0.00
2013-5-30,96,86,74,53,46,39,39,26,14,29.76,29.63,10,2,10,0.00
2013-5-31,98,87,72,56,48,43,45,28,16,29.81,29.67,8,1,8,0.00
2013-6-1,105,92,76,55,42,24,44,21,6,29.75,29.61,8,1,8,0.00
2013-6-2,106,92,76,49,42,33,35,19,9,29.70,29.55,11,2,11,0.00
2013-6-3,101,91,75,44,35,25,28,15,7,29.74,29.62,21,2,21,0.00
2013-6-4,100,89,72,47,37,24,41,17,7,29.76,29.65,10,2,10,0.00
2013-6-5,101,90,75,45,35,25,27,15,7,29.77,29.61,7,1,7,0.00
2013-6-6,106,93,74,44,36,24,30,15,6,29.69,29.53,9,2,9,0.00
2013-6-7,106,96,78,48,36,25,32,14,6,29.66,29.50,33,2,33,0.00
2013-6-8,105,95,83,46,35,24,25,13,6,29.69,29.56,12,3,12,0.00
2013-6-9,104,93,78,47,34,7,28,14,2,29.78,29.63,10,2,10,0.00
2013-6-10,104,94,78,46,33,17,29,14,4,29.77,29.62,9,2,9,0.00
2013-6-11,105,92,75,43,37,29,26,15,8,29.78,29.66,12,1,12,0.00
2013-6-12,107,95,78,49,40,26,29,17,6,29.79,29.66,8,2,8,0.00
2013-6-13,102,93,82,51,46,42,27,21,14,29.82,29.65,14,2,14,0.00
2013-6-14,102,92,79,54,46,37,39,22,11,29.77,29.59,11,1,11,0.00
2013-6-15,103,93,78,51,43,36,34,20,10,29.77,29.63,8,2,8,0.00
2013-6-16,103,92,76,48,37,24,35,16,6,29.81,29.68,10,2,10,0.00
2013-6-17,104,92,78,44,34,23,28,14,6,29.80,29.65,9,1,9,0.00
2013-6-18,104,92,75,45,32,20,30,14,5,29.74,29.58,10,2,10,0.00
2013-6-19,102,91,73,43,32,22,32,14,6,29.67,29.55,15,2,15,0.00
2013-6-20,101,91,74,42,33,24,26,14,7,29.70,29.58,10,1,10,0.00
2013-6-21,101,91,73,42,32,22,27,13,6,29.74,29.60,10,2,10,0.00
2013-6-22,101,89,73,45,34,21,36,16,6,29.74,29.59,13,2,13,0.00
2013-6-23,103,88,73,41,32,18,27,15,5,29.69,29.52,15,2,15,0.00
2013-6-24,100,89,74,44,34,22,24,15,6,29.73,29.60,9,2,9,0.00
2013-6-25,100,90,75,45,39,28,34,18,8,29.82,29.69,21,2,21,0.00
2013-6-26,102,91,74,45,37,29,28,16,9,29.89,29.76,11,2,11,0.00
2013-6-27,106,95,77,50,40,31,34,17,8,29.92,29.73,9,2,10,0.00
2013-6-28,111,97,78,52,46,39,37,19,9,29.78,29.61,8,1,9,0.00
2013-6-29,114,101,85,55,46,34,29,18,7,29.72,29.57,12,2,12,0.00
2013-6-30,111,101,88,60,53,43,34,21,11,29.73,29.54,17,3,17,0.00
2013-7-1,108,98,84,62,55,50,41,26,15,29.77,29.60,13,2,13,0.00
2013-7-2,104,96,85,62,56,51,42,28,19,29.89,29.67,25,4,25,0.00
2013-7-3,107,96,82,58,53,48,37,25,14,29.77,29.53,15,3,15,0.00
2013-7-4,104,97,87,59,54,50,32,24,16,29.71,29.53,12,2,12,0.00
2013-7-5,102,93,86,61,55,47,38,29,16,29.74,29.57,17,1,17,0.00
2013-7-6,106,97,82,64,58,53,46,28,18,29.69,29.52,12,2,12,0.00
2013-7-7,108,96,84,65,56,50,45,28,15,29.68,29.54,13,1,13,0.00
2013-7-8,110,102,87,61,54,44,37,22,12,29.77,29.63,13,3,13,0.00
2013-7-9,103,95,86,66,60,55,41,33,22,29.91,29.70,11,3,11,0.00
2013-7-10,100,92,81,67,61,57,52,37,25,29.87,29.70,11,3,11,0.00
2013-7-11,96,88,82,67,62,58,58,42,30,29.86,29.71,10,2,10,0.00
2013-7-12,99,88,81,65,60,56,47,40,27,29.80,29.70,21,2,21,0.00
2013-7-13,102,92,77,66,60,56,56,37,22,29.82,29.65,18,1,18,0.00
2013-7-14,106,96,85,63,58,53,40,30,17,29.78,29.60,19,2,19,0.00
2013-7-15,107,96,85,65,60,53,43,31,17,29.70,29.56,11,2,11,0.00
2013-7-16,100,88,81,65,61,58,51,41,26,29.86,29.67,16,5,16,0.00
2013-7-17,104,91,79,65,60,54,53,37,20,29.89,29.75,11,2,21,0.00
2013-7-18,105,95,82,61,57,50,41,29,17,29.85,29.65,15,3,15,0.00
2013-7-19,102,90,76,66,61,56,65,40,23,29.81,29.63,21,3,21,0.32
2013-7-20,98,86,74,70,65,61,71,53,30,29.78,29.59,16,2,16,0.04
2013-7-21,85,79,74,71,67,63,75,68,59,29.81,29.69,11,1,11,0.47
2013-7-22,94,84,73,72,66,60,80,57,36,29.86,29.74,10,1,10,0.00
2013-7-23,98,89,76,67,62,57,66,43,26,29.85,29.70,11,2,11,0.00
2013-7-24,102,93,81,65,60,56,47,35,23,29.78,29.63,15,1,15,0.00
2013-7-25,98,88,80,68,64,60,64,45,29,29.87,29.73,11,2,11,0.02
2013-7-26,100,91,82,71,65,61,63,44,29,29.95,29.79,9,1,9,0.00
2013-7-27,101,91,79,69,63,59,62,42,27,29.89,29.65,11,2,11,0.02
2013-7-28,103,94,81,65,57,47,54,32,15,29.73,29.59,11,2,11,0.00
2013-7-29,103,93,82,55,49,40,35,24,12,29.84,29.67,14,2,14,0.00
2013-7-30,104,94,80,57,52,47,41,25,16,29.95,29.81,9,1,9,0.00
2013-7-31,105,95,82,60,53,46,40,26,14,29.89,29.72,12,2,12,0.00
2013-8-1,106,94,86,62,58,52,42,30,18,29.81,29.70,18,4,18,0.00
2013-8-2,104,94,83,62,56,48,42,30,16,29.80,29.69,14,3,14,0.00
2013-8-3,103,94,82,59,54,45,40,28,15,29.84,29.70,13,2,13,0.00
2013-8-4,102,93,84,54,46,37,30,21,12,29.84,29.72,11,1,11,0.00
2013-8-5,97,89,79,61,54,43,40,31,17,29.88,29.73,14,2,14,0.00
2013-8-6,86,80,75,65,61,54,69,54,39,29.93,29.78,10,2,10,0.02
2013-8-7,97,82,74,65,58,40,64,48,19,29.87,29.73,8,1,8,0.00
2013-8-8,102,90,74,56,44,32,48,23,9,29.80,29.66,14,1,14,0.00
2013-8-9,103,90,73,52,43,35,44,21,10,29.76,29.65,12,2,12,0.00
2013-8-10,103,92,80,48,38,27,29,16,7,29.86,29.71,14,2,14,0.00
2013-8-11,104,91,75,55,44,36,33,21,12,29.84,29.65,11,1,11,0.00
2013-8-12,106,93,79,60,49,36,44,24,13,29.78,29.67,10,2,10,0.00
2013-8-13,104,93,78,44,37,23,26,15,6,29.85,29.70,7,1,7,0.00
2013-8-14,108,94,79,52,44,33,29,19,8,29.82,29.65,8,1,8,0.00
2013-8-15,107,97,85,62,55,46,39,26,15,29.82,29.69,12,2,12,0.00
2013-8-16,110,98,84,59,54,48,39,25,13,29.80,29.67,11,2,11,0.00
2013-8-17,108,96,86,64,57,50,39,28,15,29.87,29.63,16,2,16,0.02
2013-8-18,108,94,82,62,56,46,46,30,14,29.85,29.66,12,2,12,0.00
2013-8-19,107,95,85,62,55,49,41,28,16,29.81,29.65,10,1,10,0.00
2013-8-20,107,95,82,59,54,48,38,26,14,29.78,29.63,25,3,25,0.00
2013-8-21,97,90,84,61,57,54,43,33,26,29.83,29.70,14,1,14,0.00
2013-8-22,105,92,81,60,56,51,40,31,18,29.82,29.66,9,1,9,0.00
2013-8-23,101,91,80,61,56,50,47,33,19,29.77,29.60,11,1,11,0.00
2013-8-24,99,88,78,65,59,54,57,40,25,29.84,29.68,15,2,15,0.00
2013-8-25,86,83,78,68,62,58,61,50,41,29.89,29.78,7,1,7,0.00
2013-8-26,97,84,75,70,62,57,71,51,31,29.84,29.69,24,1,24,0.41
2013-8-27,102,89,74,70,62,52,74,46,19,29.77,29.60,15,1,15,0.00
2013-8-28,104,92,78,68,59,54,66,36,20,29.85,29.64,18,3,18,0.08
2013-8-29,94,84,76,70,66,61,72,55,35,29.93,29.81,12,2,12,0.02
2013-8-30,97,85,78,70,66,61,67,54,33,29.92,29.80,11,1,11,0.00
2013-8-31,98,87,77,72,65,60,74,51,29,29.86,29.68,14,1,14,0.02
2013-9-1,102,91,79,67,62,58,55,39,25,29.77,29.63,9,1,9,0.00
2013-9-2,100,90,81,66,62,58,53,39,27,29.78,29.63,12,2,12,0.00
2013-9-3,106,94,80,66,60,55,59,35,19,29.76,29.63,8,1,8,0.00
2013-9-4,106,95,84,64,56,46,45,29,14,29.79,29.64,11,2,11,0.00
2013-9-5,108,96,82,61,53,45,45,26,13,29.76,29.63,16,2,16,0.00
2013-9-6,106,97,84,65,54,47,47,26,14,29.97,29.70,12,2,12,0.02
2013-9-7,89,84,79,65,59,56,61,44,33,30.01,29.87,7,1,7,0.03
2013-9-8,85,80,74,66,61,55,72,54,43,29.96,29.72,13,1,13,0.24
2013-9-9,80,76,72,68,64,60,75,68,53,29.80,29.69,11,1,11,0.41
2013-9-10,83,75,69,66,62,59,77,65,49,29.87,29.75,10,2,10,0.26
2013-9-11,91,79,67,66,61,57,78,56,37,29.95,29.82,6,0,6,0.00
2013-9-12,96,84,71,61,56,52,60,41,24,29.87,29.70,5,0,5,0.00
2013-9-13,98,87,74,66,59,51,52,40,29,29.75,29.59,10,1,10,0.00
2013-9-14,100,88,77,66,59,54,55,39,23,29.70,29.59,12,2,12,0.00
2013-9-15,102,89,76,64,58,51,50,36,26,29.77,29.63,9,1,9,0.00
2013-9-16,103,91,78,62,57,51,43,33,24,29.77,29.63,14,2,14,0.00
2013-9-17,103,93,82,63,58,46,41,32,24,29.72,29.54,15,3,15,0.00
2013-9-18,102,91,80,54,46,40,38,22,13,29.68,29.56,11,2,11,0.00
2013-9-19,99,86,72,52,45,39,41,25,15,29.72,29.62,9,1,9,0.00
2013-9-20,100,86,70,55,48,38,43,28,21,29.75,29.64,10,1,10,0.00
2013-9-21,98,88,78,60,54,47,44,32,24,29.77,29.57,12,2,12,0.00
2013-9-22,88,82,71,56,43,28,41,27,13,29.69,29.58,14,2,14,0.00
2013-9-23,92,77,61,76,39,31,100,28,16,29.82,29.69,10,1,10,0.00
2013-9-24,96,80,64,46,41,34,40,26,17,29.88,29.70,16,1,16,0.00
2013-9-25,92,81,68,48,44,38,41,28,18,29.72,29.54,11,2,11,0.00
2013-9-26,92,79,68,53,41,30,34,26,18,29.67,29.54,13,3,13,0.00
2013-9-27,86,75,65,39,31,27,29,21,14,29.85,29.66,6,1,6,0.00
2013-9-28,92,75,60,39,31,24,31,21,13,29.97,29.84,10,1,10,0.00
2013-9-29,93,77,61,47,38,26,39,25,18,29.99,29.85,7,1,7,0.00
2013-9-30,92,77,62,47,40,36,43,28,17,29.89,29.75,7,1,7,0.00
2013-10-1,92,77,62,44,39,34,40,27,17,29.87,29.76,9,1,9,0.00
2013-10-2,90,78,65,49,44,37,44,31,23,29.87,29.72,10,1,10,0.00
2013-10-3,90,78,65,50,44,38,43,30,20,29.77,29.61,10,2,10,0.00
2013-10-4,89,76,65,47,35,22,43,25,12,29.92,29.69,10,1,10,0.00
2013-10-5,87,73,61,33,27,19,27,18,13,30.08,29.92,13,1,13,0.00
2013-10-6,90,74,60,36,28,17,25,19,8,30.05,29.89,8,1,8,0.00
2013-10-7,94,76,62,37,29,19,31,19,7,29.95,29.80,11,1,11,0.00
2013-10-8,90,76,61,39,34,27,40,23,11,29.83,29.67,21,1,21,0.00
2013-10-9,84,73,64,44,37,29,43,27,21,29.71,29.61,13,4,13,0.00
2013-10-10,71,63,56,44,37,32,60,40,26,29.91,29.67,14,2,14,0.02
2013-10-11,78,64,52,42,36,32,56,38,20,29.97,29.85,7,1,7,0.00
2013-10-12,83,68,53,41,36,33,52,33,18,29.90,29.79,8,1,8,0.00
2013-10-13,82,70,56,43,37,32,49,32,17,29.90,29.81,8,1,8,0.00
2013-10-14,84,70,58,46,37,28,53,32,14,29.98,29.86,8,1,8,0.00
2013-10-15,83,68,54,37,31,25,45,27,14,29.90,29.80,7,1,7,0.00
2013-10-16,83,67,54,36,30,24,42,26,13,30.01,29.86,8,1,8,0.00
2013-10-17,80,66,53,37,31,27,46,29,15,30.00,29.83,8,1,8,0.00
2013-10-18,83,67,53,36,31,25,45,28,13,29.95,29.86,6,1,6,0.00
2013-10-19,87,69,55,35,27,17,36,23,8,29.98,29.85,6,0,6,0.00
2013-10-20,83,68,54,34,28,22,40,25,11,29.90,29.77,9,1,9,0.00
2013-10-21,86,68,53,35,28,22,40,25,11,29.94,29.83,8,1,8,0.00
2013-10-22,90,71,56,36,28,19,36,23,8,29.98,29.84,9,0,9,0.00
2013-10-23,91,74,58,38,31,25,38,22,10,29.88,29.76,13,1,13,0.00
2013-10-24,89,74,61,40,31,21,34,22,9,29.90,29.78,8,1,8,0.00
2013-10-25,86,70,57,37,31,26,38,25,12,30.00,29.89,7,0,7,0.00
2013-10-26,89,72,57,43,36,29,43,28,14,30.05,29.90,7,0,7,0.00
2013-10-27,87,74,61,41,35,30,39,25,14,29.91,29.69,12,2,12,0.00
2013-10-28,82,70,60,43,36,30,40,30,18,29.79,29.69,12,2,12,0.00
2013-10-29,71,64,58,43,38,33,52,38,26,29.86,29.78,11,2,11,0.00
2013-10-30,74,61,51,38,33,27,54,37,21,29.96,29.84,8,1,8,0.00
2013-10-31,74,60,48,36,31,27,50,35,19,30.06,29.93,7,0,7,0.00
2013-11-1,78,62,48,36,31,26,53,34,16,30.09,29.95,6,0,6,0.00
2013-11-2,86,68,51,35,27,16,42,25,8,29.97,29.77,14,2,14,0.00
2013-11-3,81,68,58,43,32,8,43,28,14,29.81,29.69,8,1,8,0.00
2013-11-4,78,65,51,44,36,27,48,36,21,29.78,29.65,10,2,10,0.00
2013-11-5,74,62,53,45,39,29,59,43,29,30.07,29.77,6,1,6,0.00
2013-11-6,76,61,50,31,20,9,39,23,8,30.21,30.07,5,0,5,0.00
2013-11-7,82,63,49,27,19,10,37,21,7,30.14,29.97,14,2,14,0.00
2013-11-8,84,66,53,36,29,20,37,27,15,30.02,29.88,6,0,6,0.00
2013-11-9,83,66,53,38,34,28,47,33,17,30.04,29.94,8,0,8,0.00
2013-11-10,79,65,54,40,36,30,48,34,20,30.06,29.94,4,0,4,0.00
2013-11-11,88,69,55,41,37,28,47,32,17,30.02,29.90,4,0,4,0.00
2013-11-12,91,74,60,41,33,26,33,23,12,30.12,30.00,18,3,18,0.00
2013-11-13,84,73,63,44,40,34,43,31,21,30.08,29.91,17,4,17,0.00
2013-11-14,83,67,58,45,41,38,51,40,23,29.96,29.75,6,0,6,0.00
2013-11-15,77,67,56,47,41,36,52,40,24,29.75,29.52,11,2,11,0.00
2013-11-16,71,63,58,50,44,38,66,51,36,29.85,29.65,10,1,10,0.00
2013-11-17,72,61,51,46,41,36,64,50,34,30.01,29.84,8,1,8,0.00
2013-11-18,80,64,52,45,42,36,58,45,27,30.04,29.90,4,0,4,0.00
2013-11-19,77,63,53,47,42,37,63,48,30,29.93,29.78,7,0,7,0.00
2013-11-20,70,63,56,45,42,39,58,48,35,29.83,29.75,4,0,4,0.00
2013-11-21,66,60,51,49,42,37,75,53,41,29.87,29.80,8,0,8,0.23
2013-11-22,56,54,49,49,47,44,82,77,72,29.93,29.73,7,1,7,1.20
2013-11-23,57,51,47,44,41,37,84,70,51,30.01,29.87,14,3,14,0.41
2013-11-24,58,51,45,43,39,35,77,64,45,30.10,30.00,11,1,11,0.04
2013-11-25,64,51,41,41,38,32,77,62,39,30.16,30.07,6,0,6,0.00
2013-11-26,70,55,43,41,35,27,74,50,26,30.21,30.08,18,2,18,0.00
2013-11-27,69,58,50,33,27,23,47,33,19,30.14,29.96,18,3,18,0.00
2013-11-28,72,56,45,35,30,26,53,39,19,30.05,29.96,15,1,15,0.00
2013-11-29,73,58,47,39,35,29,59,44,25,30.13,30.03,7,0,7,0.00
2013-11-30,72,57,46,43,39,34,68,52,31,30.14,30.02,4,0,4,0.00
2013-12-1,70,57,47,46,41,37,72,57,36,30.18,30.07,5,0,5,0.00
2013-12-2,66,54,44,43,39,37,75,59,36,30.11,29.86,4,0,4,0.00
2013-12-3,72,56,45,41,38,33,73,53,27,29.87,29.65,11,1,11,0.00
2013-12-4,60,53,46,43,35,28,69,51,34,29.88,29.66,9,1,9,0.00
2013-12-5,59,46,38,28,22,17,58,41,22,30.05,29.87,6,1,6,0.00
2013-12-6,57,42,32,24,20,16,59,42,22,30.17,30.05,6,0,6,0.00
2013-12-7,55,43,31,32,25,19,68,50,29,30.07,29.96,9,1,9,0.00
2013-12-8,58,50,41,36,28,19,64,46,28,30.11,29.98,10,2,10,0.00
2013-12-9,60,43,32,22,18,14,55,38,20,30.31,30.08,6,0,6,0.00
2013-12-10,64,45,34,22,16,12,45,33,14,30.30,30.10,6,0,6,0.00
2013-12-11,72,52,37,30,23,18,46,34,15,30.21,30.11,4,0,5,0.00
2013-12-12,74,58,47,32,29,26,46,34,20,30.15,30.04,13,2,13,0.00
2013-12-13,65,51,42,31,27,24,57,42,23,30.17,30.06,7,0,7,0.00
2013-12-14,71,51,39,31,27,23,62,43,19,30.29,30.16,4,0,4,0.00
2013-12-15,71,53,42,31,24,20,47,34,15,30.30,30.17,5,0,5,0.00
2013-12-16,78,56,43,33,29,26,54,39,17,30.22,30.11,3,0,3,0.00
2013-12-17,80,58,45,36,32,28,53,39,17,30.21,30.05,4,0,4,0.00
2013-12-18,74,59,49,37,33,28,51,39,19,30.05,29.80,6,0,6,0.00
2013-12-19,71,56,46,47,35,28,75,48,22,29.80,29.67,11,1,11,0.02
2013-12-20,56,52,47,44,42,39,82,71,55,29.81,29.66,12,1,12,0.29
2013-12-21,60,49,42,42,39,36,84,70,46,30.03,29.79,9,1,9,0.00
2013-12-22,64,48,38,43,38,34,88,71,45,30.26,30.03,6,0,6,0.00
2013-12-23,72,51,38,41,37,33,85,62,32,30.36,30.23,4,0,4,0.00
2013-12-24,73,53,41,39,33,30,71,50,21,30.24,30.10,5,0,5,0.00
2013-12-25,73,53,42,34,29,24,63,42,18,30.27,30.15,6,1,6,0.00
2013-12-26,72,53,41,31,26,23,53,38,18,30.26,30.11,10,1,10,0.00
2013-12-27,74,53,40,32,27,23,56,40,17,30.22,30.08,6,0,6,0.00
2013-12-28,66,52,43,34,29,24,57,43,22,30.12,29.94,10,0,10,0.00
2013-12-29,73,52,40,33,29,25,63,44,21,30.13,29.95,7,0,7,0.00
2013-12-30,70,52,40,28,25,22,50,37,19,30.27,30.13,5,0,5,0.00
2013-12-31,73,52,38,32,28,24,58,43,21,30.22,30.08,6,0,6,0.00
2014-1-1,72,52,40,35,31,28,61,46,24,30.16,30.05,5,0,5,0.00
2014-1-2,77,56,41,32,30,27,60,41,17,30.17,30.03,10,1,10,0.00